Regional Weather Roundup
Issued by NWS

Home | Current Version | Previous Version | Graphics & Text | Print | Product List | Glossary Off
Versions: 1 2 3 4 5 6 7 8 9 10 11 12 13 14 15 16 17 18 19 20 21 22 23 24 25 26 27 28 29 30 31 32 33 34 35 36 37 38 39 40 41 42 43 44 45 46 47 48 49 50

000
ASUS43 KTOP 271208
RWRKS

WEATHER ROUNDUP FOR KANSAS
NATIONAL WEATHER SERVICE GOODLAND KS
700 AM CDT THU JUL 27 2017

NOTE:  "FAIR" INDICATES FEW OR NO CLOUDS BELOW 12,000 FEET WITH NO
SIGNIFICANT WEATHER AND/OR OBSTRUCTIONS TO VISIBILITY.

KSZ001>006-013>018-027>032-041>047-271300-
NORTHWEST KANSAS

CITY           SKY/WX    TMP DP  RH WIND       PRES   REMARKS
GOODLAND       CLOUDY    69  67  93 NE8       30.18R
6HR MIN TEMP:  69; 6HR MAX TEMP:  71;

HAYS           CLOUDY    73  69  87 NE14      30.07R
HILL CITY      CLOUDY    73  70  90 N10       30.11R FOG
6HR MIN TEMP:  73; 6HR MAX TEMP:  74;

RUSSELL        CLOUDY    73  71  93 NE10      30.03R
6HR MIN TEMP:  73; 6HR MAX TEMP:  75;

$$

KSZ061>065-074>080-084>089-271300-
SOUTHWEST KANSAS

CITY           SKY/WX    TMP DP  RH WIND       PRES   REMARKS
DODGE CITY     LGT RAIN  71  70  96 N14       30.07S FOG
6HR MIN TEMP:  72; 6HR MAX TEMP:  77;

ELKHART          N/A     67  54  63 W8          N/A
GARDEN CITY    CLOUDY    71  68  90 N12       30.11R
6HR MIN TEMP:  71; 6HR MAX TEMP:  75; 6HR PCP: TRACE;

GREAT BEND     CLOUDY    74  71  91 N14       30.03R
LIBERAL        CLOUDY    69  67  93 N13       30.08S
PRATT          CLOUDY    72  70  94 N12       30.00S FOG
6HR MIN TEMP:  72; 6HR MAX TEMP:  77;

$$

KSZ066>073-081>083-090>101-271300-
SOUTHEAST KANSAS

CITY           SKY/WX    TMP DP  RH WIND       PRES   REMARKS
CHANUTE        CLOUDY    77  74  90 S7        29.95S
6HR MIN TEMP:  77; 6HR MAX TEMP:  81; 6HR PCP:  0.57;

COFFEYVILLE    CLOUDY    76  73  91 SW8       29.96R
6HR MIN TEMP:  76; 6HR MAX TEMP:  84; 6HR PCP:  0.14;

HUTCHINSON     CLOUDY    75  73  93 N10       29.97S FOG
6HR MIN TEMP:  75; 6HR MAX TEMP:  78;

MEDICINE LODGE   N/A     75  72  90 N9        29.96R
NEWTON         FOG       73  73 100 NE10      29.97S VSB 1/2
PARSONS        CLOUDY    77  73  87 S7        29.96S
6HR MIN TEMP:  77; 6HR MAX TEMP:  85;

WICHITA INTL   MOCLDY    77  70  79 SW6       29.94S
6HR MIN TEMP:  77; 6HR MAX TEMP:  83;

WICHITA JABRA  CLOUDY    79  70  74 SW6       29.95R
6HR MIN TEMP:  79; 6HR MAX TEMP:  84;

WICHITA MCCONL CLOUDY    79  68  69 W7        29.95R
WINFIELD       MOCLDY    80  68  66 SW10      29.94F
6HR MIN TEMP:  79; 6HR MAX TEMP:  87; 6HR PCP: TRACE;

$$

KSZ007>012-019>026-033>040-048>060-102>105-271300-
NORTHEAST KANSAS

CITY           SKY/WX    TMP DP  RH WIND       PRES   REMARKS
CONCORDIA      CLOUDY    73  71  93 NE9       30.04R
6HR MIN TEMP:  73; 6HR MAX TEMP:  74;

EMPORIA        CLOUDY    75  74  96 W3        29.97R
6HR MIN TEMP:  75; 6HR MAX TEMP:  77; 6HR PCP: TRACE;

LAWRENCE       CLOUDY    75  75 100 N3        29.96R
6HR MIN TEMP:  74; 6HR MAX TEMP:  76; 6HR PCP:  1.06;

MANHATTAN      CLOUDY    75  73  93 NE8       29.99R
6HR MIN TEMP:  74; 6HR MAX TEMP:  76; 6HR PCP:  0.07;

MARYSVILLE     CLOUDY    72  70  94 NE10      30.02R
OLATHE IND     CLOUDY    74  73  97 VRB6      29.98R
6HR MIN TEMP:  74; 6HR MAX TEMP:  77; 6HR PCP:  2.14;

OLATHE EXE     CLOUDY    72  72 100 CALM      29.97R
6HR MIN TEMP:  72; 6HR MAX TEMP:  75; 6HR PCP:  4.31;

SALINA         CLOUDY    77  73  87 NE10      30.00R
6HR MIN TEMP:  77; 6HR MAX TEMP:  78; 6HR PCP: TRACE;

TOPEKA BILLARD CLOUDY    76  76 100 N6        29.96S
6HR MIN TEMP:  75; 6HR MAX TEMP:  76; 6HR PCP:  0.03;

TOPEKA FORBES  CLOUDY    77  75  93 N5        29.97R FOG
6HR MIN TEMP:  76; 6HR MAX TEMP:  77; 6HR PCP: TRACE;

$$




USA.gov is the U.S. government's official web portal to all federal, state and local government web resources and services.